Time,TemperatureF,DewpointF,PressureIn,WindDirection,WindDirectionDegrees,WindSpeedMPH,WindSpeedGustMPH,Humidity,HourlyPrecipIn,Conditions,Clouds,dailyrainin,SolarRadiationWatts/m^2,SoftwareType,DateUTC
2013-09-17 00:01:00,42.3,39.9,30.41,NNW,332,0.0,4.0,91,0.00,,,0.00,0,Wunderground v.1.15,2013-09-17 04:01:00,
2013-09-17 00:02:00,42.3,39.9,30.41,NNW,332,0.0,4.0,91,0.00,,,0.00,0,Wunderground v.1.15,2013-09-17 04:02:00,
2013-09-17 00:03:00,42.3,39.9,30.41,NNW,332,0.0,4.0,91,0.00,,,0.00,0,Wunderground v.1.15,2013-09-17 04:03:00,
2013-09-17 00:04:00,42.3,39.9,30.41,NNW,332,0.0,4.0,91,0.00,,,0.00,0,Wunderground v.1.15,2013-09-17 04:04:00,
2013-09-17 00:05:00,42.3,39.9,30.40,NNW,332,0.0,4.0,91,0.00,,,0.00,0,Wunderground v.1.15,2013-09-17 04:05:00,
2013-09-17 00:10:00,42.3,40.1,30.41,NNW,332,0.0,4.0,92,0.00,,,0.00,0,Wunderground v.1.15,2013-09-17 04:10:00,
2013-09-17 00:16:00,42.3,40.1,30.41,NNW,332,0.0,4.0,92,0.00,,,0.00,0,Wunderground v.1.15,2013-09-17 04:16:00,
2013-09-17 00:17:00,42.3,40.1,30.41,NNW,332,0.0,4.0,92,0.00,,,0.00,0,Wunderground v.1.15,2013-09-17 04:17:00,
2013-09-17 00:22:00,42.3,40.1,30.41,NNW,332,0.0,4.0,92,0.00,,,0.00,0,Wunderground v.1.15,2013-09-17 04:22:00,
2013-09-17 00:28:00,42.3,40.1,30.41,NNW,332,0.0,4.0,92,0.00,,,0.00,0,Wunderground v.1.15,2013-09-17 04:28:00,
2013-09-17 00:34:00,42.2,40.0,30.41,NNW,332,0.0,4.0,92,0.00,,,0.00,0,Wunderground v.1.15,2013-09-17 04:34:00,
2013-09-17 00:40:00,42.0,39.8,30.41,NNW,332,0.0,4.0,92,0.00,,,0.00,0,Wunderground v.1.15,2013-09-17 04:40:00,
2013-09-17 00:46:00,41.9,39.7,30.41,NNW,332,0.0,4.0,92,0.00,,,0.00,0,Wunderground v.1.15,2013-09-17 04:46:00,
2013-09-17 00:51:00,41.7,39.5,30.41,NNW,332,0.0,4.0,92,0.00,,,0.00,0,Wunderground v.1.15,2013-09-17 04:51:00,
2013-09-17 00:57:00,41.6,39.4,30.41,NNW,332,0.0,4.0,92,0.00,,,0.00,0,Wunderground v.1.15,2013-09-17 04:57:00,
2013-09-17 01:03:00,41.5,39.3,30.41,NNW,332,0.0,4.0,92,0.00,,,0.00,0,Wunderground v.1.15,2013-09-17 05:03:00,
2013-09-17 01:09:00,41.4,39.5,30.41,NNW,332,0.0,4.0,93,0.00,,,0.00,0,Wunderground v.1.15,2013-09-17 05:09:00,
2013-09-17 01:14:00,41.4,39.5,30.41,NNW,332,0.0,4.0,93,0.00,,,0.00,0,Wunderground v.1.15,2013-09-17 05:14:00,
2013-09-17 01:20:00,41.2,39.3,30.41,NNW,332,0.0,4.0,93,0.00,,,0.00,0,Wunderground v.1.15,2013-09-17 05:20:00,
2013-09-17 01:25:00,41.1,39.2,30.42,NNW,332,0.0,4.0,93,0.00,,,0.00,0,Wunderground v.1.15,2013-09-17 05:25:00,
2013-09-17 01:31:00,41.0,39.1,30.42,NNW,332,0.0,4.0,93,0.00,,,0.00,0,Wunderground v.1.15,2013-09-17 05:31:00,
2013-09-17 01:37:00,41.0,39.1,30.42,NNW,332,0.0,4.0,93,0.00,,,0.00,0,Wunderground v.1.15,2013-09-17 05:37:00,
2013-09-17 01:42:00,41.0,39.1,30.42,NNW,332,0.0,4.0,93,0.00,,,0.00,0,Wunderground v.1.15,2013-09-17 05:42:00,
2013-09-17 01:48:00,40.9,39.3,30.42,NNW,332,0.0,4.0,94,0.00,,,0.00,0,Wunderground v.1.15,2013-09-17 05:48:00,
2013-09-17 01:53:00,40.9,39.3,30.42,NNW,332,0.0,4.0,94,0.00,,,0.00,0,Wunderground v.1.15,2013-09-17 05:53:00,
2013-09-17 01:59:00,40.9,39.3,30.42,NNW,332,0.0,4.0,94,0.00,,,0.00,0,Wunderground v.1.15,2013-09-17 05:59:00,
2013-09-17 02:04:00,40.9,39.3,30.42,NNW,332,0.0,4.0,94,0.00,,,0.00,0,Wunderground v.1.15,2013-09-17 06:04:00,
2013-09-17 02:10:00,40.8,39.2,30.42,NNW,332,0.0,4.0,94,0.00,,,0.00,0,Wunderground v.1.15,2013-09-17 06:10:00,
2013-09-17 02:16:00,40.7,39.1,30.41,NNW,332,0.0,4.0,94,0.00,,,0.00,0,Wunderground v.1.15,2013-09-17 06:16:00,
2013-09-17 02:21:00,40.8,39.2,30.41,NNW,332,0.0,4.0,94,0.00,,,0.00,0,Wunderground v.1.15,2013-09-17 06:21:00,
2013-09-17 02:27:00,40.8,39.2,30.41,NNW,332,0.0,4.0,94,0.00,,,0.00,0,Wunderground v.1.15,2013-09-17 06:27:00,
2013-09-17 02:33:00,40.8,39.5,30.41,NNW,332,0.0,4.0,95,0.00,,,0.00,0,Wunderground v.1.15,2013-09-17 06:33:00,
2013-09-17 02:39:00,40.8,39.5,30.41,NNW,332,0.0,4.0,95,0.00,,,0.00,0,Wunderground v.1.15,2013-09-17 06:39:00,
2013-09-17 02:45:00,40.7,39.4,30.41,NNW,332,0.0,4.0,95,0.00,,,0.00,0,Wunderground v.1.15,2013-09-17 06:45:00,
2013-09-17 02:50:00,40.7,39.4,30.41,NNW,332,0.0,4.0,95,0.00,,,0.00,0,Wunderground v.1.15,2013-09-17 06:50:00,
2013-09-17 02:56:00,40.6,39.0,30.41,NNW,332,0.0,4.0,94,0.00,,,0.00,0,Wunderground v.1.15,2013-09-17 06:56:00,
2013-09-17 03:01:00,40.6,39.3,30.41,NNW,332,0.0,4.0,95,0.00,,,0.00,0,Wunderground v.1.15,2013-09-17 07:01:00,
2013-09-17 03:07:00,40.6,39.3,30.41,NNW,332,0.0,4.0,95,0.00,,,0.00,0,Wunderground v.1.15,2013-09-17 07:07:00,
2013-09-17 03:13:00,40.5,39.2,30.41,NNW,332,0.0,4.0,95,0.00,,,0.00,0,Wunderground v.1.15,2013-09-17 07:13:00,
2013-09-17 03:18:00,40.5,39.2,30.41,NNW,332,0.0,4.0,95,0.00,,,0.00,0,Wunderground v.1.15,2013-09-17 07:18:00,
2013-09-17 03:24:00,40.4,39.1,30.41,NNW,332,0.0,4.0,95,0.00,,,0.00,0,Wunderground v.1.15,2013-09-17 07:24:00,
2013-09-17 03:30:00,40.3,39.0,30.41,NNW,332,0.0,4.0,95,0.00,,,0.00,0,Wunderground v.1.15,2013-09-17 07:30:00,
2013-09-17 03:36:00,40.2,38.9,30.41,NNW,332,0.0,4.0,95,0.00,,,0.00,0,Wunderground v.1.15,2013-09-17 07:36:00,
2013-09-17 03:41:00,40.2,38.9,30.41,NNW,332,0.0,4.0,95,0.00,,,0.00,0,Wunderground v.1.15,2013-09-17 07:41:00,
2013-09-17 03:47:00,40.2,38.9,30.41,NNW,332,0.0,4.0,95,0.00,,,0.00,0,Wunderground v.1.15,2013-09-17 07:47:00,
2013-09-17 03:53:00,40.1,38.8,30.41,NNW,332,0.0,4.0,95,0.00,,,0.00,0,Wunderground v.1.15,2013-09-17 07:53:00,
2013-09-17 03:58:00,40.0,38.7,30.41,NNW,332,0.0,4.0,95,0.00,,,0.00,0,Wunderground v.1.15,2013-09-17 07:58:00,
2013-09-17 04:04:00,39.9,38.6,30.41,NNW,332,0.0,4.0,95,0.00,,,0.00,0,Wunderground v.1.15,2013-09-17 08:04:00,
2013-09-17 04:09:00,39.8,38.5,30.41,NNW,332,0.0,4.0,95,0.00,,,0.00,0,Wunderground v.1.15,2013-09-17 08:09:00,
2013-09-17 04:15:00,39.8,38.5,30.41,NNW,332,0.0,4.0,95,0.00,,,0.00,0,Wunderground v.1.15,2013-09-17 08:15:00,
2013-09-17 04:21:00,39.7,38.4,30.41,NNW,332,0.0,4.0,95,0.00,,,0.00,0,Wunderground v.1.15,2013-09-17 08:21:00,
2013-09-17 04:26:00,39.6,38.3,30.41,NNW,332,0.0,4.0,95,0.00,,,0.00,0,Wunderground v.1.15,2013-09-17 08:26:00,
2013-09-17 04:32:00,39.5,38.2,30.41,NNW,332,0.0,4.0,95,0.00,,,0.00,0,Wunderground v.1.15,2013-09-17 08:32:00,
2013-09-17 04:37:00,39.4,38.1,30.42,NNW,332,0.0,4.0,95,0.00,,,0.00,0,Wunderground v.1.15,2013-09-17 08:37:00,
2013-09-17 04:43:00,39.3,38.0,30.42,NNW,332,0.0,4.0,95,0.00,,,0.00,0,Wunderground v.1.15,2013-09-17 08:43:00,
2013-09-17 04:49:00,39.2,37.9,30.42,NNW,332,0.0,4.0,95,0.00,,,0.00,0,Wunderground v.1.15,2013-09-17 08:49:00,
2013-09-17 04:54:00,39.1,37.8,30.41,NNW,332,0.0,4.0,95,0.00,,,0.00,0,Wunderground v.1.15,2013-09-17 08:54:00,
2013-09-17 05:00:00,39.1,37.8,30.42,NNW,332,0.0,4.0,95,0.00,,,0.00,0,Wunderground v.1.15,2013-09-17 09:00:00,
2013-09-17 05:06:00,39.1,37.8,30.42,NNW,332,0.0,4.0,95,0.00,,,0.00,0,Wunderground v.1.15,2013-09-17 09:06:00,
2013-09-17 05:11:00,39.0,37.7,30.42,NNW,332,0.0,4.0,95,0.00,,,0.00,0,Wunderground v.1.15,2013-09-17 09:11:00,
2013-09-17 05:17:00,39.1,37.8,30.42,NNW,332,0.0,4.0,95,0.00,,,0.00,0,Wunderground v.1.15,2013-09-17 09:17:00,
2013-09-17 05:23:00,39.1,38.1,30.42,NNW,332,0.0,4.0,96,0.00,,,0.00,0,Wunderground v.1.15,2013-09-17 09:23:00,
2013-09-17 05:28:00,39.1,38.1,30.42,NNW,332,0.0,4.0,96,0.00,,,0.00,0,Wunderground v.1.15,2013-09-17 09:28:00,
2013-09-17 05:34:00,39.2,38.2,30.42,NNW,332,0.0,4.0,96,0.00,,,0.00,0,Wunderground v.1.15,2013-09-17 09:34:00,
2013-09-17 05:40:00,39.3,38.3,30.42,NNW,332,0.0,4.0,96,0.00,,,0.00,0,Wunderground v.1.15,2013-09-17 09:40:00,
2013-09-17 05:45:00,39.3,38.3,30.42,NNW,332,0.0,4.0,96,0.00,,,0.00,0,Wunderground v.1.15,2013-09-17 09:45:00,
2013-09-17 05:51:00,39.3,38.3,30.42,NNW,332,0.0,4.0,96,0.00,,,0.00,0,Wunderground v.1.15,2013-09-17 09:51:00,
2013-09-17 05:56:00,39.2,38.2,30.42,NNW,332,0.0,4.0,96,0.00,,,0.00,0,Wunderground v.1.15,2013-09-17 09:56:00,
2013-09-17 06:02:00,39.2,38.2,30.42,NNW,332,0.0,4.0,96,0.00,,,0.00,0,Wunderground v.1.15,2013-09-17 10:02:00,
2013-09-17 06:08:00,39.1,38.1,30.42,NNW,332,0.0,4.0,96,0.00,,,0.00,0,Wunderground v.1.15,2013-09-17 10:08:00,
2013-09-17 06:13:00,39.1,38.1,30.42,NNW,332,0.0,4.0,96,0.00,,,0.00,0,Wunderground v.1.15,2013-09-17 10:13:00,
2013-09-17 06:19:00,39.0,38.0,30.42,NNW,332,0.0,4.0,96,0.00,,,0.00,0,Wunderground v.1.15,2013-09-17 10:19:00,
2013-09-17 06:25:00,39.0,38.0,30.42,NNW,332,0.0,4.0,96,0.00,,,0.00,0,Wunderground v.1.15,2013-09-17 10:25:00,
2013-09-17 06:31:00,39.0,38.0,30.42,NNW,332,0.0,4.0,96,0.00,,,0.00,0,Wunderground v.1.15,2013-09-17 10:31:00,
2013-09-17 06:36:00,39.1,38.1,30.43,NNW,332,0.0,4.0,96,0.00,,,0.00,0,Wunderground v.1.15,2013-09-17 10:36:00,
2013-09-17 06:42:00,39.1,38.1,30.43,NNW,332,0.0,4.0,96,0.00,,,0.00,0,Wunderground v.1.15,2013-09-17 10:42:00,
2013-09-17 06:47:00,39.2,38.2,30.43,NNW,332,0.0,4.0,96,0.00,,,0.00,0,Wunderground v.1.15,2013-09-17 10:47:00,
2013-09-17 06:53:00,39.2,38.2,30.43,NNW,332,0.0,4.0,96,0.00,,,0.00,0,Wunderground v.1.15,2013-09-17 10:53:00,
2013-09-17 06:59:00,39.3,38.3,30.43,NNW,332,0.0,4.0,96,0.00,,,0.00,0,Wunderground v.1.15,2013-09-17 10:59:00,
2013-09-17 07:04:00,39.3,38.3,30.42,NNW,332,0.0,4.0,96,0.00,,,0.00,0,Wunderground v.1.15,2013-09-17 11:04:00,
2013-09-17 07:10:00,39.3,38.3,30.42,NNW,332,0.0,4.0,96,0.00,,,0.00,0,Wunderground v.1.15,2013-09-17 11:10:00,
2013-09-17 07:15:00,39.2,38.2,30.42,NNW,332,0.0,4.0,96,0.00,,,0.00,0,Wunderground v.1.15,2013-09-17 11:15:00,
2013-09-17 07:21:00,39.2,38.2,30.42,NNW,332,0.0,4.0,96,0.00,,,0.00,0,Wunderground v.1.15,2013-09-17 11:21:00,
2013-09-17 07:26:00,39.1,38.1,30.42,NNW,332,0.0,4.0,96,0.00,,,0.00,0,Wunderground v.1.15,2013-09-17 11:26:00,
2013-09-17 07:33:00,39.1,38.1,30.42,NNW,332,0.0,4.0,96,0.00,,,0.00,0,Wunderground v.1.15,2013-09-17 11:33:00,
2013-09-17 07:38:00,39.2,38.2,30.42,NNW,332,0.0,4.0,96,0.00,,,0.00,5,Wunderground v.1.15,2013-09-17 11:38:00,
2013-09-17 07:44:00,39.4,38.6,30.43,NNW,332,0.0,4.0,97,0.00,,,0.00,5,Wunderground v.1.15,2013-09-17 11:44:00,
2013-09-17 07:49:00,39.6,38.8,30.43,NNW,332,0.0,4.0,97,0.00,,,0.00,7,Wunderground v.1.15,2013-09-17 11:49:00,
2013-09-17 07:55:00,39.9,39.1,30.43,NNW,332,0.0,4.0,97,0.00,,,0.00,7,Wunderground v.1.15,2013-09-17 11:55:00,
2013-09-17 08:00:00,40.0,39.2,30.43,NNW,332,0.0,4.0,97,0.00,,,0.00,9,Wunderground v.1.15,2013-09-17 12:00:00,
2013-09-17 08:06:00,40.2,39.4,30.43,NNW,332,0.0,4.0,97,0.00,,,0.00,9,Wunderground v.1.15,2013-09-17 12:06:00,
2013-09-17 08:12:00,40.5,39.7,30.43,NNW,332,0.0,4.0,97,0.00,,,0.00,9,Wunderground v.1.15,2013-09-17 12:12:00,
2013-09-17 08:18:00,40.7,39.9,30.42,NNW,332,0.0,4.0,97,0.00,,,0.00,11,Wunderground v.1.15,2013-09-17 12:18:00,
2013-09-17 08:24:00,40.9,40.1,30.42,NNW,332,0.0,4.0,97,0.00,,,0.00,11,Wunderground v.1.15,2013-09-17 12:24:00,
2013-09-17 08:29:00,41.1,40.3,30.43,NNW,332,0.0,4.0,97,0.00,,,0.00,11,Wunderground v.1.15,2013-09-17 12:29:00,
2013-09-17 08:35:00,41.2,40.4,30.42,NNW,332,0.0,4.0,97,0.00,,,0.00,12,Wunderground v.1.15,2013-09-17 12:35:00,
2013-09-17 08:40:00,41.4,40.6,30.42,NNW,332,0.0,4.0,97,0.00,,,0.00,12,Wunderground v.1.15,2013-09-17 12:40:00,
2013-09-17 08:46:00,41.7,40.9,30.43,NNW,332,0.0,4.0,97,0.00,,,0.00,14,Wunderground v.1.15,2013-09-17 12:46:00,
2013-09-17 08:52:00,42.0,41.2,30.42,NNW,332,0.0,4.0,97,0.00,,,0.00,14,Wunderground v.1.15,2013-09-17 12:52:00,
2013-09-17 08:57:00,42.4,41.6,30.42,NNW,332,0.0,4.0,97,0.00,,,0.00,16,Wunderground v.1.15,2013-09-17 12:57:00,
2013-09-17 09:03:00,42.9,42.4,30.42,NNW,332,0.0,4.0,98,0.00,,,0.00,16,Wunderground v.1.15,2013-09-17 13:03:00,
2013-09-17 09:08:00,43.3,42.8,30.43,NNW,332,0.0,4.0,98,0.00,,,0.00,18,Wunderground v.1.15,2013-09-17 13:08:00,
2013-09-17 09:14:00,43.8,43.3,30.42,NNW,332,0.0,4.0,98,0.00,,,0.00,40,Wunderground v.1.15,2013-09-17 13:14:00,
2013-09-17 09:20:00,44.4,43.9,30.42,NNW,332,0.0,4.0,98,0.00,,,0.00,18,Wunderground v.1.15,2013-09-17 13:20:00,
2013-09-17 09:26:00,44.8,44.3,30.42,NNW,332,0.0,4.0,98,0.00,,,0.00,16,Wunderground v.1.15,2013-09-17 13:26:00,
2013-09-17 09:32:00,45.2,44.7,30.42,NNW,332,0.0,4.0,98,0.00,,,0.00,16,Wunderground v.1.15,2013-09-17 13:32:00,
2013-09-17 09:37:00,45.4,44.9,30.42,NNW,332,0.0,4.0,98,0.00,,,0.00,44,Wunderground v.1.15,2013-09-17 13:37:00,
2013-09-17 09:43:00,45.7,45.2,30.42,NNW,332,0.0,4.0,98,0.00,,,0.00,16,Wunderground v.1.15,2013-09-17 13:43:00,
2013-09-17 09:48:00,45.9,45.4,30.42,NNW,332,0.0,4.0,98,0.00,,,0.00,16,Wunderground v.1.15,2013-09-17 13:48:00,
2013-09-17 09:54:00,46.1,45.6,30.42,NNW,332,0.0,4.0,98,0.00,,,0.00,16,Wunderground v.1.15,2013-09-17 13:54:00,
2013-09-17 10:00:00,46.3,45.8,30.42,NNW,332,0.0,4.0,98,0.00,,,0.00,16,Wunderground v.1.15,2013-09-17 14:00:00,
2013-09-17 10:05:00,46.5,46.0,30.41,NNW,335,0.0,4.0,98,0.00,,,0.00,18,Wunderground v.1.15,2013-09-17 14:05:00,
2013-09-17 10:11:00,46.9,46.4,30.42,NNW,335,0.0,4.0,98,0.00,,,0.00,18,Wunderground v.1.15,2013-09-17 14:11:00,
2013-09-17 10:17:00,47.2,46.7,30.42,NNW,335,0.0,4.0,98,0.00,,,0.00,23,Wunderground v.1.15,2013-09-17 14:17:00,
2013-09-17 10:22:00,47.5,47.0,30.41,NNW,335,0.0,4.0,98,0.00,,,0.00,19,Wunderground v.1.15,2013-09-17 14:22:00,
2013-09-17 10:28:00,47.8,47.0,30.42,NNW,335,0.0,4.0,97,0.00,,,0.00,25,Wunderground v.1.15,2013-09-17 14:28:00,
2013-09-17 10:34:00,48.2,47.7,30.41,NNW,335,0.0,4.0,98,0.00,,,0.00,44,Wunderground v.1.15,2013-09-17 14:34:00,
2013-09-17 10:39:00,48.6,48.1,30.41,NNW,335,0.0,4.0,98,0.00,,,0.00,54,Wunderground v.1.15,2013-09-17 14:39:00,
2013-09-17 10:45:00,49.0,48.2,30.41,NNW,335,0.0,4.0,97,0.00,,,0.00,49,Wunderground v.1.15,2013-09-17 14:45:00,
2013-09-17 10:51:00,49.5,48.7,30.41,NNW,335,0.0,4.0,97,0.00,,,0.00,114,Wunderground v.1.15,2013-09-17 14:51:00,
2013-09-17 10:56:00,49.9,49.1,30.41,NNW,335,0.0,4.0,97,0.00,,,0.00,142,Wunderground v.1.15,2013-09-17 14:56:00,
2013-09-17 11:02:00,50.4,49.6,30.41,NNW,335,0.0,4.0,97,0.00,,,0.00,185,Wunderground v.1.15,2013-09-17 15:02:00,
2013-09-17 11:07:00,50.9,50.1,30.41,NNW,334,0.0,4.0,97,0.00,,,0.00,54,Wunderground v.1.15,2013-09-17 15:07:00,
2013-09-17 11:13:00,51.4,50.3,30.41,NNW,334,0.0,4.0,96,0.00,,,0.00,49,Wunderground v.1.15,2013-09-17 15:13:00,
2013-09-17 11:19:00,51.8,50.1,30.40,NNW,334,0.0,4.0,94,0.00,,,0.00,77,Wunderground v.1.15,2013-09-17 15:19:00,
2013-09-17 11:25:00,52.1,50.1,30.40,NNW,334,0.0,4.0,93,0.00,,,0.00,109,Wunderground v.1.15,2013-09-17 15:25:00,
2013-09-17 11:30:00,52.4,50.1,30.40,NNW,334,0.0,4.0,92,0.00,,,0.00,81,Wunderground v.1.15,2013-09-17 15:30:00,
2013-09-17 11:36:00,52.7,49.8,30.40,NNW,334,0.0,4.0,90,0.00,,,0.00,524,Wunderground v.1.15,2013-09-17 15:36:00,
2013-09-17 11:42:00,53.0,50.1,30.39,NNW,334,0.0,4.0,90,0.00,,,0.00,74,Wunderground v.1.15,2013-09-17 15:42:00,
2013-09-17 11:48:00,53.3,50.1,30.39,NNW,334,0.0,4.0,89,0.00,,,0.00,100,Wunderground v.1.15,2013-09-17 15:48:00,
2013-09-17 11:53:00,53.6,50.1,30.39,NNW,334,0.0,4.0,88,0.00,,,0.00,107,Wunderground v.1.15,2013-09-17 15:53:00,
2013-09-17 11:59:00,53.9,50.1,30.39,NNW,334,0.0,4.0,87,0.00,,,0.00,93,Wunderground v.1.15,2013-09-17 15:59:00,
2013-09-17 12:04:00,54.1,50.3,30.39,NNW,334,0.0,4.0,87,0.00,,,0.00,691,Wunderground v.1.15,2013-09-17 16:04:00,
2013-09-17 12:10:00,54.6,50.2,30.39,NNW,334,0.0,4.0,85,0.00,,,0.00,130,Wunderground v.1.15,2013-09-17 16:10:00,
2013-09-17 12:15:00,55.0,50.3,30.39,NNW,334,0.0,4.0,84,0.00,,,0.00,125,Wunderground v.1.15,2013-09-17 16:15:00,
2013-09-17 12:21:00,55.5,50.4,30.39,NNW,334,0.0,4.0,83,0.00,,,0.00,158,Wunderground v.1.15,2013-09-17 16:21:00,
2013-09-17 12:27:00,55.8,50.1,30.39,NNW,334,0.0,4.0,81,0.00,,,0.00,786,Wunderground v.1.15,2013-09-17 16:27:00,
2013-09-17 12:32:00,56.1,50.3,30.39,NNW,334,0.0,4.0,81,0.00,,,0.00,90,Wunderground v.1.15,2013-09-17 16:32:00,
2013-09-17 12:38:00,56.3,50.5,30.39,NNW,334,0.0,4.0,81,0.00,,,0.00,135,Wunderground v.1.15,2013-09-17 16:38:00,
2013-09-17 12:43:00,56.6,50.8,30.38,NNW,334,0.0,4.0,81,0.00,,,0.00,802,Wunderground v.1.15,2013-09-17 16:43:00,
2013-09-17 12:49:00,57.2,51.4,30.38,NNW,334,0.0,4.0,81,0.00,,,0.00,91,Wunderground v.1.15,2013-09-17 16:49:00,
2013-09-17 12:55:00,57.6,51.5,30.38,NNW,334,0.0,4.0,80,0.00,,,0.00,788,Wunderground v.1.15,2013-09-17 16:55:00,
2013-09-17 13:00:00,58.2,52.1,30.38,NNW,334,0.0,4.0,80,0.00,,,0.00,763,Wunderground v.1.15,2013-09-17 17:00:00,
2013-09-17 13:06:00,59.1,52.2,30.38,NNW,332,0.0,4.0,78,0.00,,,0.00,812,Wunderground v.1.15,2013-09-17 17:06:00,
2013-09-17 13:12:00,60.0,51.7,30.37,NNW,332,0.0,4.0,74,0.00,,,0.00,102,Wunderground v.1.15,2013-09-17 17:12:00,
2013-09-17 13:17:00,60.3,51.6,30.37,NNW,332,0.0,4.0,73,0.00,,,0.00,142,Wunderground v.1.15,2013-09-17 17:17:00,
2013-09-17 13:23:00,60.6,52.3,30.37,NNW,332,0.0,4.0,74,0.00,,,0.00,816,Wunderground v.1.15,2013-09-17 17:23:00,
2013-09-17 13:28:00,60.9,51.0,30.36,West,261,0.0,4.0,70,0.00,,,0.00,766,Wunderground v.1.15,2013-09-17 17:28:00,
2013-09-17 13:34:00,61.4,50.7,30.36,North,5,0.0,4.0,68,0.00,,,0.00,775,Wunderground v.1.15,2013-09-17 17:34:00,
2013-09-17 13:39:00,61.9,51.2,30.35,North,5,0.0,4.0,68,0.00,,,0.00,701,Wunderground v.1.15,2013-09-17 17:39:00,
2013-09-17 13:45:00,62.1,51.4,30.35,North,5,0.0,4.0,68,0.00,,,0.00,759,Wunderground v.1.15,2013-09-17 17:45:00,
2013-09-17 13:50:00,62.1,51.4,30.35,North,5,0.0,4.0,68,0.00,,,0.00,758,Wunderground v.1.15,2013-09-17 17:50:00,
2013-09-17 13:56:00,62.1,51.8,30.34,SSW,196,0.0,4.0,69,0.00,,,0.00,722,Wunderground v.1.15,2013-09-17 17:56:00,
2013-09-17 14:01:00,62.4,51.7,30.34,NE,55,0.0,4.0,68,0.00,,,0.00,733,Wunderground v.1.15,2013-09-17 18:01:00,
2013-09-17 14:07:00,62.7,49.9,30.34,West,277,0.0,4.0,63,0.00,,,0.00,125,Wunderground v.1.15,2013-09-17 18:07:00,
2013-09-17 14:12:00,62.7,51.2,30.34,SSW,198,0.0,4.0,66,0.00,,,0.00,118,Wunderground v.1.15,2013-09-17 18:12:00,
2013-09-17 14:18:00,62.9,51.4,30.33,SSW,198,0.0,4.0,66,0.00,,,0.00,125,Wunderground v.1.15,2013-09-17 18:18:00,
2013-09-17 14:23:00,63.1,50.3,30.33,NW,316,0.0,4.0,63,0.00,,,0.00,696,Wunderground v.1.15,2013-09-17 18:23:00,
2013-09-17 14:29:00,63.1,51.1,30.33,NW,316,0.0,4.0,65,0.00,,,0.00,679,Wunderground v.1.15,2013-09-17 18:29:00,
2013-09-17 14:35:00,63.1,50.7,30.33,NW,315,0.0,4.0,64,0.00,,,0.00,673,Wunderground v.1.15,2013-09-17 18:35:00,
2013-09-17 14:41:00,63.2,49.5,30.32,NW,315,0.0,4.0,61,0.00,,,0.00,668,Wunderground v.1.15,2013-09-17 18:41:00,
2013-09-17 14:46:00,63.4,51.0,30.32,SSE,158,0.0,4.0,64,0.00,,,0.00,673,Wunderground v.1.15,2013-09-17 18:46:00,
2013-09-17 14:52:00,63.7,50.4,30.32,SSE,156,0.0,4.0,62,0.00,,,0.00,617,Wunderground v.1.15,2013-09-17 18:52:00,
2013-09-17 14:58:00,63.9,51.1,30.31,SSE,156,0.0,4.0,63,0.00,,,0.00,643,Wunderground v.1.15,2013-09-17 18:58:00,
2013-09-17 15:03:00,64.0,51.1,30.31,SSE,156,0.0,4.0,63,0.00,,,0.00,635,Wunderground v.1.15,2013-09-17 19:03:00,
2013-09-17 15:09:00,64.1,50.8,30.31,SSE,156,0.0,4.0,62,0.00,,,0.00,635,Wunderground v.1.15,2013-09-17 19:09:00,
2013-09-17 15:15:00,64.0,48.9,30.30,NE,34,0.0,4.0,58,0.00,,,0.00,642,Wunderground v.1.15,2013-09-17 19:15:00,
2013-09-17 15:21:00,63.9,50.6,30.30,East,92,0.0,4.0,62,0.00,,,0.00,594,Wunderground v.1.15,2013-09-17 19:21:00,
2013-09-17 15:27:00,63.9,50.2,30.30,East,86,0.0,4.0,61,0.00,,,0.00,427,Wunderground v.1.15,2013-09-17 19:27:00,
2013-09-17 15:33:00,64.0,51.1,30.29,East,86,0.0,4.0,63,0.00,,,0.00,118,Wunderground v.1.15,2013-09-17 19:33:00,
2013-09-17 15:39:00,64.1,51.2,30.29,East,86,0.0,4.0,63,0.00,,,0.00,91,Wunderground v.1.15,2013-09-17 19:39:00,
2013-09-17 15:44:00,64.1,51.2,30.29,South,180,0.0,4.0,63,0.00,,,0.00,88,Wunderground v.1.15,2013-09-17 19:44:00,
2013-09-17 15:50:00,64.2,49.6,30.29,NNW,344,0.0,4.0,59,0.00,,,0.00,84,Wunderground v.1.15,2013-09-17 19:50:00,
2013-09-17 15:56:00,64.2,50.5,30.28,NNE,15,0.0,4.0,61,0.00,,,0.00,81,Wunderground v.1.15,2013-09-17 19:56:00,
2013-09-17 16:01:00,64.1,51.7,30.28,SE,135,0.0,4.0,64,0.00,,,0.00,79,Wunderground v.1.15,2013-09-17 20:01:00,
2013-09-17 16:07:00,64.0,50.3,30.28,NNE,17,0.0,4.0,61,0.00,,,0.00,77,Wunderground v.1.15,2013-09-17 20:07:00,
2013-09-17 16:13:00,64.0,50.7,30.27,North,360,0.0,4.0,62,0.00,,,0.00,76,Wunderground v.1.15,2013-09-17 20:13:00,
2013-09-17 16:18:00,64.0,51.1,30.27,North,360,0.0,4.0,63,0.00,,,0.00,74,Wunderground v.1.15,2013-09-17 20:18:00,
2013-09-17 16:24:00,64.0,49.8,30.27,North,360,0.0,4.0,60,0.00,,,0.00,72,Wunderground v.1.15,2013-09-17 20:24:00,
2013-09-17 16:30:00,64.0,50.7,30.27,SSW,204,0.0,4.0,62,0.00,,,0.00,70,Wunderground v.1.15,2013-09-17 20:30:00,
2013-09-17 16:36:00,63.8,50.5,30.26,SW,232,0.0,4.0,62,0.00,,,0.00,69,Wunderground v.1.15,2013-09-17 20:36:00,
2013-09-17 16:41:00,63.6,50.3,30.26,North,9,0.0,4.0,62,0.00,,,0.00,69,Wunderground v.1.15,2013-09-17 20:41:00,
2013-09-17 16:47:00,63.4,48.8,30.26,North,9,0.0,4.0,59,0.00,,,0.00,69,Wunderground v.1.15,2013-09-17 20:47:00,
2013-09-17 16:53:00,63.4,49.7,30.26,North,9,0.0,4.0,61,0.00,,,0.00,70,Wunderground v.1.15,2013-09-17 20:53:00,
2013-09-17 16:58:00,63.5,49.8,30.26,North,9,0.0,4.0,61,0.00,,,0.00,70,Wunderground v.1.15,2013-09-17 20:58:00,
2013-09-17 17:03:00,63.7,50.0,30.26,NNE,19,0.0,4.0,61,0.00,,,0.00,69,Wunderground v.1.15,2013-09-17 21:03:00,
2013-09-17 17:09:00,63.9,49.3,30.25,ESE,123,0.0,4.0,59,0.00,,,0.00,69,Wunderground v.1.15,2013-09-17 21:09:00,
2013-09-17 17:15:00,64.2,50.5,30.25,ESE,123,0.0,4.0,61,0.00,,,0.00,359,Wunderground v.1.15,2013-09-17 21:15:00,
2013-09-17 17:21:00,64.4,49.8,30.25,NNE,13,0.0,4.0,59,0.00,,,0.00,346,Wunderground v.1.15,2013-09-17 21:21:00,
2013-09-17 17:27:00,64.4,51.1,30.25,South,176,0.0,4.0,62,0.00,,,0.00,327,Wunderground v.1.15,2013-09-17 21:27:00,
2013-09-17 17:32:00,64.3,50.6,30.25,South,176,0.0,4.0,61,0.00,,,0.00,313,Wunderground v.1.15,2013-09-17 21:32:00,
2013-09-17 17:38:00,64.0,50.3,30.24,SSE,168,0.0,4.0,61,0.00,,,0.00,295,Wunderground v.1.15,2013-09-17 21:38:00,
2013-09-17 17:43:00,63.9,51.5,30.25,North,5,0.0,4.0,64,0.00,,,0.00,279,Wunderground v.1.15,2013-09-17 21:43:00,
2013-09-17 17:49:00,63.8,51.0,30.24,NW,309,0.0,4.0,63,0.00,,,0.00,258,Wunderground v.1.15,2013-09-17 21:49:00,
2013-09-17 17:54:00,63.5,50.7,30.24,NW,309,0.0,4.0,63,0.00,,,0.00,243,Wunderground v.1.15,2013-09-17 21:54:00,
2013-09-17 18:00:00,63.0,51.0,30.25,NW,311,0.0,4.0,65,0.00,,,0.00,218,Wunderground v.1.15,2013-09-17 22:00:00,
2013-09-17 18:05:00,62.9,51.0,30.25,NNE,13,0.0,4.0,65,0.00,,,0.00,199,Wunderground v.1.15,2013-09-17 22:05:00,
2013-09-17 18:11:00,62.7,51.2,30.24,NNE,13,0.0,4.0,66,0.00,,,0.00,178,Wunderground v.1.15,2013-09-17 22:11:00,
2013-09-17 18:17:00,62.6,51.1,30.24,NNE,13,0.0,4.0,66,0.00,,,0.00,155,Wunderground v.1.15,2013-09-17 22:17:00,
2013-09-17 18:22:00,62.5,51.4,30.24,NNE,13,0.0,4.0,67,0.00,,,0.00,139,Wunderground v.1.15,2013-09-17 22:22:00,
2013-09-17 18:28:00,62.4,50.9,30.24,NNE,13,0.0,4.0,66,0.00,,,0.00,118,Wunderground v.1.15,2013-09-17 22:28:00,
2013-09-17 18:34:00,62.0,50.9,30.24,NNE,13,0.0,4.0,67,0.00,,,0.00,100,Wunderground v.1.15,2013-09-17 22:34:00,
2013-09-17 18:40:00,61.8,50.7,30.24,NNE,13,0.0,4.0,67,0.00,,,0.00,83,Wunderground v.1.15,2013-09-17 22:40:00,
2013-09-17 18:46:00,61.4,50.3,30.24,NNE,13,0.0,4.0,67,0.00,,,0.00,67,Wunderground v.1.15,2013-09-17 22:46:00,
2013-09-17 18:52:00,61.1,50.5,30.23,NNE,13,0.0,4.0,68,0.00,,,0.00,51,Wunderground v.1.15,2013-09-17 22:52:00,
2013-09-17 18:58:00,60.7,50.1,30.23,SSW,213,0.0,4.0,68,0.00,,,0.00,40,Wunderground v.1.15,2013-09-17 22:58:00,
2013-09-17 19:03:00,60.4,49.4,30.23,SSW,213,0.0,4.0,67,0.00,,,0.00,37,Wunderground v.1.15,2013-09-17 23:03:00,
2013-09-17 19:09:00,60.0,49.4,30.23,North,355,0.0,4.0,68,0.00,,,0.00,33,Wunderground v.1.15,2013-09-17 23:09:00,
2013-09-17 19:14:00,59.7,48.7,30.23,North,355,0.0,4.0,67,0.00,,,0.00,30,Wunderground v.1.15,2013-09-17 23:14:00,
2013-09-17 19:20:00,59.3,48.7,30.23,North,355,0.0,4.0,68,0.00,,,0.00,26,Wunderground v.1.15,2013-09-17 23:20:00,
2013-09-17 19:25:00,59.0,48.4,30.23,North,355,0.0,4.0,68,0.00,,,0.00,12,Wunderground v.1.15,2013-09-17 23:25:00,
2013-09-17 19:31:00,58.6,48.8,30.23,North,355,0.0,4.0,70,0.00,,,0.00,5,Wunderground v.1.15,2013-09-17 23:31:00,
2013-09-17 19:37:00,58.2,48.5,30.23,North,355,0.0,4.0,70,0.00,,,0.00,0,Wunderground v.1.15,2013-09-17 23:37:00,
2013-09-17 19:43:00,57.7,48.4,30.22,North,355,0.0,4.0,71,0.00,,,0.00,0,Wunderground v.1.15,2013-09-17 23:43:00,
2013-09-17 19:48:00,57.3,48.3,30.22,North,355,0.0,4.0,72,0.00,,,0.00,0,Wunderground v.1.15,2013-09-17 23:48:00,
2013-09-17 19:54:00,56.8,48.2,30.22,North,355,0.0,4.0,73,0.00,,,0.00,0,Wunderground v.1.15,2013-09-17 23:54:00,
2013-09-17 20:00:00,56.4,48.2,30.22,North,355,0.0,4.0,74,0.00,,,0.00,0,Wunderground v.1.15,2013-09-18 00:00:00,
2013-09-17 20:06:00,56.0,48.2,30.22,North,355,0.0,4.0,75,0.00,,,0.00,0,Wunderground v.1.15,2013-09-18 00:06:00,
2013-09-17 20:11:00,55.7,48.2,30.22,North,355,0.0,4.0,76,0.00,,,0.00,0,Wunderground v.1.15,2013-09-18 00:11:00,
2013-09-17 20:17:00,55.3,48.2,30.22,North,355,0.0,4.0,77,0.00,,,0.00,0,Wunderground v.1.15,2013-09-18 00:17:00,
2013-09-17 20:23:00,55.0,48.3,30.22,North,355,0.0,4.0,78,0.00,,,0.00,0,Wunderground v.1.15,2013-09-18 00:23:00,
2013-09-17 20:28:00,54.8,48.4,30.22,North,355,0.0,4.0,79,0.00,,,0.00,0,Wunderground v.1.15,2013-09-18 00:28:00,
2013-09-17 20:34:00,54.6,48.6,30.22,North,355,0.0,4.0,80,0.00,,,0.00,0,Wunderground v.1.15,2013-09-18 00:34:00,
2013-09-17 20:40:00,54.3,48.6,30.22,North,355,0.0,4.0,81,0.00,,,0.00,0,Wunderground v.1.15,2013-09-18 00:40:00,
2013-09-17 20:45:00,54.2,48.5,30.22,North,355,0.0,4.0,81,0.00,,,0.00,0,Wunderground v.1.15,2013-09-18 00:45:00,
2013-09-17 20:51:00,54.0,48.6,30.22,North,355,0.0,4.0,82,0.00,,,0.00,0,Wunderground v.1.15,2013-09-18 00:51:00,
2013-09-17 20:57:00,53.9,48.9,30.22,North,355,0.0,4.0,83,0.00,,,0.00,0,Wunderground v.1.15,2013-09-18 00:57:00,
2013-09-17 21:02:00,53.8,49.1,30.22,North,355,0.0,4.0,84,0.00,,,0.00,0,Wunderground v.1.15,2013-09-18 01:02:00,
2013-09-17 21:08:00,53.6,48.9,30.22,North,355,0.0,4.0,84,0.00,,,0.00,0,Wunderground v.1.15,2013-09-18 01:08:00,
2013-09-17 21:14:00,53.3,48.9,30.22,North,355,0.0,4.0,85,0.00,,,0.00,0,Wunderground v.1.15,2013-09-18 01:14:00,
2013-09-17 21:20:00,53.1,48.7,30.22,North,355,0.0,4.0,85,0.00,,,0.00,0,Wunderground v.1.15,2013-09-18 01:20:00,
2013-09-17 21:25:00,53.0,48.6,30.22,North,355,0.0,4.0,85,0.00,,,0.00,0,Wunderground v.1.15,2013-09-18 01:25:00,
2013-09-17 21:31:00,52.7,48.6,30.21,North,355,0.0,4.0,86,0.00,,,0.00,0,Wunderground v.1.15,2013-09-18 01:31:00,
2013-09-17 21:37:00,52.5,48.7,30.21,North,355,0.0,4.0,87,0.00,,,0.00,0,Wunderground v.1.15,2013-09-18 01:37:00,
2013-09-17 21:43:00,52.3,48.5,30.21,North,355,0.0,4.0,87,0.00,,,0.00,0,Wunderground v.1.15,2013-09-18 01:43:00,
2013-09-17 21:49:00,52.1,48.7,30.21,North,355,0.0,4.0,88,0.00,,,0.00,0,Wunderground v.1.15,2013-09-18 01:49:00,
2013-09-17 21:55:00,51.9,48.5,30.21,North,355,0.0,4.0,88,0.00,,,0.00,0,Wunderground v.1.15,2013-09-18 01:55:00,
2013-09-17 22:00:00,51.8,48.7,30.21,North,355,0.0,4.0,89,0.00,,,0.00,0,Wunderground v.1.15,2013-09-18 02:00:00,
2013-09-17 22:06:00,51.7,48.9,30.20,North,355,0.0,4.0,90,0.00,,,0.00,0,Wunderground v.1.15,2013-09-18 02:06:00,
2013-09-17 22:12:00,51.7,48.9,30.21,North,355,0.0,4.0,90,0.00,,,0.00,0,Wunderground v.1.15,2013-09-18 02:12:00,
2013-09-17 22:18:00,51.5,49.0,30.20,North,355,0.0,4.0,91,0.00,,,0.00,0,Wunderground v.1.15,2013-09-18 02:18:00,
2013-09-17 22:23:00,51.5,49.0,30.21,North,355,0.0,4.0,91,0.00,,,0.00,0,Wunderground v.1.15,2013-09-18 02:23:00,
2013-09-17 22:29:00,51.3,48.8,30.20,North,355,0.0,4.0,91,0.00,,,0.00,0,Wunderground v.1.15,2013-09-18 02:29:00,
2013-09-17 22:35:00,51.2,48.7,30.20,North,355,0.0,4.0,91,0.00,,,0.00,0,Wunderground v.1.15,2013-09-18 02:35:00,
2013-09-17 22:41:00,51.0,48.5,30.20,North,355,0.0,4.0,91,0.00,,,0.00,0,Wunderground v.1.15,2013-09-18 02:41:00,
2013-09-17 22:47:00,50.9,48.4,30.20,North,355,0.0,4.0,91,0.00,,,0.00,0,Wunderground v.1.15,2013-09-18 02:47:00,
2013-09-17 22:52:00,50.8,48.3,30.20,North,355,0.0,4.0,91,0.00,,,0.00,0,Wunderground v.1.15,2013-09-18 02:52:00,
2013-09-17 22:58:00,50.6,48.1,30.20,North,355,0.0,4.0,91,0.00,,,0.00,0,Wunderground v.1.15,2013-09-18 02:58:00,
2013-09-17 23:04:00,50.5,48.0,30.20,North,355,0.0,4.0,91,0.00,,,0.00,0,Wunderground v.1.15,2013-09-18 03:04:00,
2013-09-17 23:10:00,50.2,47.7,30.19,North,355,0.0,4.0,91,0.00,,,0.00,0,Wunderground v.1.15,2013-09-18 03:10:00,
2013-09-17 23:16:00,50.1,47.6,30.20,North,355,0.0,4.0,91,0.00,,,0.00,0,Wunderground v.1.15,2013-09-18 03:16:00,
2013-09-17 23:22:00,50.0,47.8,30.19,North,355,0.0,4.0,92,0.00,,,0.00,0,Wunderground v.1.15,2013-09-18 03:22:00,
2013-09-17 23:28:00,49.9,47.7,30.19,North,355,0.0,4.0,92,0.00,,,0.00,0,Wunderground v.1.15,2013-09-18 03:28:00,
2013-09-17 23:34:00,49.7,47.5,30.19,North,355,0.0,4.0,92,0.00,,,0.00,0,Wunderground v.1.15,2013-09-18 03:34:00,
2013-09-17 23:39:00,49.6,47.4,30.19,North,355,0.0,4.0,92,0.00,,,0.00,0,Wunderground v.1.15,2013-09-18 03:39:00,
2013-09-17 23:45:00,49.5,47.3,30.19,North,355,0.0,4.0,92,0.00,,,0.00,0,Wunderground v.1.15,2013-09-18 03:45:00,
2013-09-17 23:51:00,49.4,47.5,30.19,North,355,0.0,4.0,93,0.00,,,0.00,0,Wunderground v.1.15,2013-09-18 03:51:00,
2013-09-17 23:56:00,49.3,47.4,30.19,North,355,0.0,4.0,93,0.00,,,0.00,0,Wunderground v.1.15,2013-09-18 03:56:00,